Home > Weather > Petersburg > Past weeks

Flag for USA Past Weather in Petersburg, Indiana, USA — Yesterday and Last 2 Weeks

Now
64 °F

Passing clouds.


Feels Like: 64 °F
Forecast: 65 / 83 °F
Wind: 6 mph from Southeast

Location: Huntingburg Airport

Current Time: May 25, 2016 at 7:20:43 AM

Latest Report: May 25, 2016 at 6:55 AM


Visibility: 10 mi

Pressure: 30.07 "Hg

Humidity: 73%

Dew Point: 55 °F

Location of PetersburgLocation

Past Weather in Petersburg — Graph

°F

Petersburg Temperature Yesterday

Maximum temperature yesterday: 82 °F (at 12:55 PM)
Minimum temperature yesterday: 52 °F (at 6:35 AM)
Average temperature yesterday: 70 °F

High & Low Weather Summary for the Past Weeks

 TemperatureHumidityPressure
High82 °F (May 11, 3:55 PM)94% (May 10, 8:35 AM)30.29 "Hg (May 10, 8:35 AM)
Low39 °F (May 15, 5:35 AM)24% (May 23, 4:15 PM)29.86 "Hg (May 14, 3:55 AM)
Average60 °F72%30.07 "Hg
* Reported May 10 6:15 AM — May 25 6:15 AM, Petersburg, Weather by CustomWeather, © 2016

Note: Actual official high and low records may vary slightly from our data, if they occured in-between our weather recording intervals... More about our weather records

Advertising

Petersburg Weather History for the Previous 24 Hours

Scroll right to see more
 ConditionsComfort  
Time TempWeatherWind HumidityBarometerVisibility
6:15 AM
Wed, May 25
63 °FClear.6 mph77%30.06 "Hg10 mi
5:55 AM63 °FPassing clouds.6 mph77%30.05 "Hg10 mi
5:35 AM64 °FPassing clouds.No wind73%30.05 "Hg10 mi
5:15 AM64 °FPartly cloudy.No wind73%30.06 "Hg10 mi
4:55 AM63 °FPassing clouds.7 mph77%30.05 "Hg10 mi
4:35 AM63 °FPassing clouds.5 mph77%30.05 "Hg10 mi
4:15 AM63 °FPassing clouds.5 mph77%30.06 "Hg10 mi
3:55 AM63 °FPassing clouds.3 mph77%30.06 "Hg9 mi
3:35 AM64 °FPassing clouds.3 mph73%30.06 "Hg10 mi
3:15 AM64 °FClear.3 mph73%30.06 "Hg9 mi
2:55 AM66 °FClear.No wind68%30.06 "Hg10 mi
2:35 AM66 °FPassing clouds.3 mph68%30.05 "Hg10 mi
2:15 AM68 °FPassing clouds.No wind64%30.05 "Hg10 mi
1:55 AM70 °FClear.5 mph60%30.05 "Hg10 mi
1:35 AM70 °FClear.3 mph60%30.06 "Hg10 mi
1:15 AM70 °FPassing clouds.5 mph60%30.06 "Hg10 mi
12:55 AM70 °FPassing clouds.5 mph60%30.06 "Hg10 mi
12:35 AM70 °FPassing clouds.5 mph60%30.06 "Hg10 mi
11:55 PM
Tue, May 24
70 °FPassing clouds.3 mph60%30.06 "Hg10 mi
11:35 PM70 °FPassing clouds.5 mph60%30.06 "Hg10 mi
11:15 PM70 °FPassing clouds.3 mph60%30.06 "Hg10 mi
10:55 PM70 °FPassing clouds.6 mph64%30.06 "Hg10 mi
10:35 PM72 °FPassing clouds.6 mph61%30.05 "Hg10 mi
10:15 PM72 °FPassing clouds.7 mph61%30.05 "Hg10 mi
9:55 PM72 °FPartly sunny.5 mph61%30.05 "Hg10 mi
9:35 PM72 °FPartly sunny.6 mph61%30.04 "Hg10 mi
9:15 PM73 °FPartly sunny.3 mph57%30.04 "Hg10 mi
8:55 PM73 °FOvercast.3 mph57%30.04 "Hg10 mi
8:35 PM75 °FOvercast.5 mph54%30.04 "Hg10 mi
8:15 PM75 °FOvercast.6 mph50%30.05 "Hg10 mi
7:55 PM75 °FMostly cloudy.7 mph50%30.06 "Hg10 mi
7:35 PM77 °FMostly cloudy.8 mph47%30.05 "Hg10 mi
7:15 PM79 °FOvercast.8 mph45%30.05 "Hg10 mi
6:55 PM79 °FScattered clouds.12 mph45%30.05 "Hg10 mi
6:35 PM81 °FBroken clouds.10 mph42%30.05 "Hg10 mi
6:15 PM81 °FPartly sunny.13 mph45%30.05 "Hg10 mi
5:55 PM81 °FBroken clouds.13 mph45%30.05 "Hg10 mi
5:35 PM81 °FPartly sunny.10 mph45%30.05 "Hg10 mi
5:15 PM82 °FPassing clouds.9 mph42%30.06 "Hg10 mi
4:55 PM82 °FPassing clouds.9 mph42%30.06 "Hg10 mi
4:35 PM82 °FSunny.12 mph40%30.06 "Hg10 mi
4:15 PM82 °FSunny.12 mph40%30.06 "Hg10 mi
3:55 PM82 °FSunny.14 mph42%30.05 "Hg10 mi
3:35 PM82 °FPartly sunny.10 mph45%30.06 "Hg10 mi
3:15 PM82 °FScattered clouds.10 mph42%30.06 "Hg10 mi
2:55 PM82 °FScattered clouds.12 mph42%30.06 "Hg10 mi
2:35 PM82 °FScattered clouds.12 mph42%30.08 "Hg10 mi
2:15 PM82 °FPassing clouds.12 mph40%30.08 "Hg10 mi
1:55 PM82 °FSunny.12 mph40%30.08 "Hg10 mi
1:35 PM82 °FSunny.10 mph40%30.09 "Hg10 mi
1:15 PM82 °FPassing clouds.13 mph40%30.09 "Hg9 mi
12:55 PM82 °FSunny.7 mph40%30.10 "Hg8 mi
12:35 PM81 °FSunny.6 mph45%30.10 "Hg10 mi
12:15 PM79 °FSunny.3 mph48%30.10 "Hg10 mi
11:55 AM79 °FSunny.6 mph45%30.10 "Hg10 mi
11:35 AM75 °FSunny.7 mph50%30.10 "Hg10 mi
11:15 AM75 °FSunny.7 mph47%30.10 "Hg10 mi
10:55 AM75 °FSunny.10 mph44%30.09 "Hg10 mi
10:35 AM73 °FSunny.7 mph50%30.09 "Hg10 mi
10:15 AM73 °FSunny.7 mph50%30.10 "Hg10 mi
9:55 AM72 °FSunny.6 mph50%30.10 "Hg10 mi
9:35 AM70 °FSunny.6 mph53%30.11 "Hg10 mi
9:15 AM66 °FPassing clouds.3 mph64%30.10 "Hg10 mi
8:55 AM64 °FScattered clouds.3 mph64%30.09 "Hg10 mi
8:35 AM61 °FSunny.5 mph72%30.09 "Hg10 mi
8:15 AM59 °FSunny.3 mph72%30.08 "Hg10 mi
7:55 AM57 °FSunny.5 mph72%30.07 "Hg10 mi
7:35 AM55 °FPassing clouds.5 mph77%30.07 "Hg10 mi
7:15 AM55 °FPassing clouds.5 mph77%30.07 "Hg10 mi
Weather by CustomWeather, © 2016

See weather overviewHow to use our weather pages